User: anonymous   Login
Location: Unspecified
(0.0000°N, 0.0000°E)
Time: 12:38:49
(UTC+00:00)
Language:

AGILE - Orbit

View from above orbital plane
View from above orbital plane
View from above satellite
View from above satellite

Ground track
Ground track

The orbit data is extracted from the following two-line orbital elements,

1 31135U 07013A   15241.07951809  .00005277  00000-0  15885-3 0  9997
2 31135 002.4670 181.0551 0014740 224.2225 135.6650 15.25723222462863
Epoch (UTC): 29 August 2015 01:54:30
Eccentricity: 0.0014740
inclination: 2.4670°
perigee height: 478 km
apogee height: 499 km
right ascension of ascending node: 181.0551°
argument of perigee: 224.2225°
revolutions per day: 15.25723222
mean anomaly at epoch: 135.6650°
orbit number at epoch: 46286

The dashed part of the orbit path shows where the satellite is in the earth's shadow,  

DLR